Showing default

FLOCK 4Q 33, 58308

Orbit data source: Space-Track

FLOCK 4Q 33, 58308 is a payload satellite owned by Planet (US) in SSO that was launched on Sat, 11 Nov 2023 UTC via an FALCON 9 launch vehicle from the Air Force Western Test Range (AFWTR). Payload-class satellites include a variety of spacecraft equipped with specific instruments for various scientific and technological missions. These include communications satellites like Starlink; space stations such as the ISS; scientific satellites like the Hubble; Earth observation satellites from companies like Planet Labs, Umbra, and HawkEye 360; GPS; miniature CubeSats for education and research; and military/defense satellites.

Loading next visibility...
Identifier
58308, 2023-174BE
Orbit
SSO
Country
Flag of USUS
Related business
Manufacturer
Planet
Mission
Operational Commercial Imaging
Bus & Motor
CUBESAT 3U, Unknown motor
Mass
5.7 kg wet, 5.7 kg dry
Launch date (UTC)
2023-11-11 (2 years ago)
Launch vehicle
FALCON 9
Launch site
Air Force Western Test Range (AFWTR)
Object type
Payload
Rocket body
Debris
Shape & HBR
Box + 2 Pan, 1.0 m
Radar Cross Section
0.072 m², Medium (>0.1 m² and < 1m²)

Expand to show TLE details & history
Last TLE update: 14 hours ago

TLE from 14 hours ago
0 FLOCK 4Q 33
1 58308U 23174BE  25300.68515747  .00026815  00000-0  63311-3 0  9993
2 58308  97.4040  21.8293 0006836 248.6914 111.3603 15.41818505109825
Epoch: 2025-10-27T16:26Z
TLE epoch observation values (Epoch: 2025-10-27T16:26:37.605Z)
Latitude
-0.00006°
Longitude
98.88916°
Altitude
445.563 km
Speed
7.644 km/s
True Right ascension
01h 27m 19s
True Declination
0° 00' 00"
Sunlit
Object was in full shadow at epoch
Visualization orbit readout
Latitude
Unknown
Longitude
Unknown
Altitude
Unknown
Speed
Unknown
Apparent Right ascension
Unknown
Apparent Declination
Unknown
Sunlit
N/A
Visualization observer readout
Local Sidereal Time
01:53:28
Azimuth
Unknown
Elevation
Unknown
Doppler factor
Unknown
Orbital elements
Apogee altitude
442.338 km
Perigee altitude
433.02 km
Semi-major axis
6,815.816 km
Eccentricity
0.00068
Inclination
97.404°
RAAN
21.8293°
Arg. of periapsis
248.6914°
True anomaly
111.43323°
Mean anomaly
111.3603°
Eccentric anomaly
111.39677°
Mean motion
3.85715 °/min
Orbital period
93.33 mins
BSTAR
0.00063311
Loading maneuver chart data...
Computing Atmospheric mass density...
Loading historical data...
Loading historical data...
Loading historical data...
Loading historical data...
Loading historical data...
Loading historical data...
Loading historical data...

Documentation

Showing up to 5 results
|